Driggs, ID

6:44 AM MDT on April 27, 2017 (GMT -0600)
Driggs

Weather History for KDIJ - April, 2014

Change the Weather History Date:

Monday, April 21, 2014

  Actual Average (KJAC) Record (KJAC)
Temperature  
Mean Temperature 46 °F -  
Max Temperature 63 °F 49 °F 69 °F (1989)
Min Temperature 29 °F 22 °F 3 °F (1982)
Degree Days  
Heating Degree Days 19    
Moisture  
Dew Point 20 °F    
Average Humidity 41    
Maximum Humidity 79    
Minimum Humidity 13    
Precipitation  
Precipitation 0.00 in - - ()
Sea Level Pressure  
Sea Level Pressure 30.07 in    
Wind  
Wind Speed 4 mph (SSE)    
Max Wind Speed 14 mph    
Max Gust Speed 18 mph    
Visibility 9 miles    
Events      
Averages and records for this station are not official NWS values.
T = Trace of Precipitation, MM = Missing Value Source: NWS Daily Summary

Daily Weather History Graph

Daily Weather History Graph

Search for Another Location

Airport or City:

Trip Planner

Search our weather history database for the weather conditions in past years. The results will help you decide how hot, cold, wet, or windy it might be!

Date:

Astronomy

Apr. 21, 2014 Rise Set
Actual Time 6:31 AM MDT 8:15 PM MDT
Civil Twilight 6:01 AM MDT 8:45 PM MDT
Nautical Twilight 5:24 AM MDT 9:23 PM MDT
Astronomical Twilight 4:44 AM MDT 10:03 PM MDT
Moon 1:50 AM MDT (4/21) 11:59 AM MDT (4/21)
Length of Visible Light 14h 44m
Length of Day
13h 43m
Waning Gibbous, 57% of the Moon is Illuminated
Apr 21
Waning Gibbous
Apr 22
Last Quarter
Apr 29
New
May 6
First Quarter
May 14
Full

Hourly Weather History & Observations

Time (MDT) Temp. Windchill Dew Point Humidity Pressure Visibility Wind Dir Wind Speed Gust Speed Precip Events Conditions
12:56 AM 32.9 °F 29.8 °F 23.0 °F 67% 30.19 in 10.0 mi ESE 3.5 mph - N/A   Clear
1:56 AM 34.0 °F - 21.0 °F 59% 30.18 in 10.0 mi Calm Calm - N/A   Clear
2:56 AM 31.1 °F - 24.1 °F 75% 30.20 in 10.0 mi Calm Calm - N/A   Clear
3:56 AM 30.0 °F 26.5 °F 23.0 °F 75% 30.19 in 10.0 mi ESE 3.5 mph - N/A   Clear
4:56 AM 31.1 °F - 21.0 °F 66% 30.19 in 10.0 mi Calm Calm - N/A   Clear
5:56 AM 30.0 °F 22.4 °F 24.1 °F 79% 30.19 in 10.0 mi East 8.1 mph - N/A   Clear
6:56 AM 29.1 °F 25.4 °F 22.1 °F 75% 30.20 in 9.0 mi SW 3.5 mph - N/A   Clear
7:56 AM 32.9 °F 28.5 °F 23.0 °F 67% 30.21 in 9.0 mi SE 4.6 mph - N/A   Clear
8:56 AM 39.9 °F 37.8 °F 22.1 °F 49% 30.19 in 9.0 mi Variable 3.5 mph - N/A   Clear
9:56 AM 45.9 °F - 18.1 °F 33% 30.19 in 8.0 mi Calm Calm - N/A   Clear
10:56 AM 50.9 °F - 19.0 °F 28% 30.14 in 9.0 mi Calm Calm - N/A   Clear
11:56 AM 54.0 °F - 19.0 °F 25% 30.13 in 9.0 mi Calm Calm - N/A   Clear
12:56 PM 59.9 °F - 18.1 °F 20% 30.09 in 8.0 mi Variable 4.6 mph - N/A   Partly Cloudy
1:56 PM 61.0 °F - 13.1 °F 15% 30.05 in 7.0 mi SW 13.8 mph - N/A   Partly Cloudy
2:56 PM 61.9 °F - 16.2 °F 17% 30.04 in 8.0 mi SSW 11.5 mph 18.4 mph N/A   Clear
3:56 PM 61.9 °F - 10.0 °F 13% 30.03 in 8.0 mi SW 8.1 mph - N/A   Clear
4:56 PM 63.0 °F - 11.1 °F 13% 29.99 in 8.0 mi SW 12.7 mph 18.4 mph N/A   Clear
5:56 PM 63.0 °F - 14.0 °F 15% 29.96 in 8.0 mi South 11.5 mph 17.3 mph N/A   Clear
6:56 PM 59.9 °F - 17.1 °F 19% 29.95 in 7.0 mi South 9.2 mph - N/A   Clear
7:56 PM 56.8 °F - 22.1 °F 26% 29.94 in 7.0 mi South 6.9 mph - N/A   Clear
8:56 PM 54.0 °F - 24.1 °F 31% 29.92 in 9.0 mi ESE 4.6 mph - N/A   Clear
9:56 PM 50.9 °F - 26.1 °F 38% 29.91 in 9.0 mi ESE 4.6 mph - N/A   Clear
10:56 PM 50.9 °F - 27.1 °F 40% 29.87 in 10.0 mi SE 9.2 mph - N/A   Overcast
11:56 PM 52.9 °F - 28.0 °F 38% 29.82 in 10.0 mi South 8.1 mph - N/A   Mostly Cloudy